QPF
0.01 0.02 0.03 0.03 0.03 0.04 0.02 0.01 0.00 0.00 0.01 0.01 0.00 0.00 0.00 0.01 0.02 0.03 0.07 0.05 0.02 0.01 0.01 0.02 0.03 0.02 0.02 0.02 0.03 0.03 0.03 0.03 0.01 0.01 0.02 0.01 0.03 0.04 0.04 0.03 0.03 0.04 0.04 0.02 0.02 0.02 0.01 0.02 0.01
0.02 0.03 0.07 0.05 0.03 0.02 0.01 0.00 0.00 0.00 0.00 0.00 0.00 0.00 0.00 0.00 0.00 0.01 0.04 0.03 0.02 0.01 0.00 0.01 0.02 0.02 0.02 0.03 0.04 0.04 0.03 0.02 0.02 0.02 0.02 0.01 0.02 0.02 0.02 0.03 0.03 0.04 0.04 0.04 0.02 0.01 0.01 0.02 0.02
0.02 0.03 0.03 0.03 0.02 0.01 0.01 0.01 0.00 0.00 0.00 0.00 0.00 0.00 0.00 0.00 0.00 0.02 0.02 0.01 0.01 0.02 0.01 0.02 0.02 0.02 0.04 0.05 0.05 0.05 0.03 0.03 0.03 0.03 0.02 0.02 0.03 0.02 0.02 0.03 0.03 0.03 0.04 0.03 0.02 0.01 0.02 0.02 0.02
0.01 0.01 0.01 0.02 0.01 0.01 0.00 0.00 0.00 0.00 0.00 0.00 0.00 0.00 0.00 0.00 0.00 0.01 0.01 0.00 0.00 0.01 0.02 0.02 0.03 0.04 0.06 0.06 0.06 0.05 0.04 0.04 0.03 0.03 0.02 0.02 0.03 0.02 0.02 0.03 0.03 0.02 0.02 0.02 0.02 0.01 0.01 0.01 0.02
0.01 0.01 0.02 0.02 0.01 0.01 0.00 0.00 0.00 0.00 0.00 0.00 0.00 0.00 0.02 0.00 0.00 0.00 0.00 0.00 0.00 0.01 0.02 0.03 0.06 0.08 0.08 0.07 0.06 0.05 0.05 0.05 0.04 0.04 0.02 0.02 0.02 0.02 0.02 0.02 0.02 0.02 0.02 0.01 0.01 0.01 0.01 0.02 0.02
0.01 0.01 0.01 0.02 0.02 0.01 0.01 0.00 0.00 0.00 0.00 0.00 0.00 0.00 0.02 0.01 0.01 0.00 0.00 0.00 0.01 0.02 0.04 0.05 0.07 0.09 0.09 0.06 0.05 0.05 0.05 0.05 0.03 0.03 0.02 0.02 0.02 0.02 0.03 0.03 0.02 0.01 0.01 0.01 0.01 0.01 0.01 0.02 0.02
0.01 0.02 0.03 0.02 0.01 0.01 0.01 0.00 0.00 0.00 0.00 0.00 0.00 0.00 0.01 0.01 0.01 0.01 0.00 0.00 0.00 0.01 0.02 0.05 0.08 0.10 0.06 0.05 0.06 0.06 0.05 0.04 0.03 0.02 0.02 0.02 0.02 0.02 0.02 0.02 0.02 0.01 0.00 0.00 0.00 0.00 0.00 0.01 0.02
0.00 0.01 0.05 0.04 0.01 0.01 0.00 0.00 0.00 0.00 0.00 0.01 0.01 0.00 0.00 0.00 0.00 0.00 0.01 0.00 0.00 0.01 0.05 0.10 0.12 0.07 0.06 0.08 0.07 0.06 0.04 0.02 0.02 0.01 0.02 0.02 0.02 0.02 0.02 0.02 0.01 0.01 0.00 0.01 0.00 0.00 0.00 0.01 0.02
0.01 0.01 0.03 0.04 0.02 0.01 0.02 0.00 0.00 0.00 0.00 0.03 0.05 0.00 0.00 0.00 0.00 0.00 0.00 0.01 0.01 0.01 0.03 0.06 0.08 0.10 0.12 0.11 0.09 0.06 0.03 0.02 0.02 0.01 0.02 0.02 0.01 0.02 0.02 0.02 0.02 0.02 0.01 0.01 0.01 0.01 0.01 0.01 0.02
0.00 0.00 0.01 0.02 0.01 0.01 0.01 0.00 0.00 0.00 0.00 0.01 0.01 0.00 0.00 0.00 0.00 0.00 0.00 0.01 0.01 0.01 0.01 0.02 0.03 0.05 0.07 0.07 0.06 0.05 0.03 0.02 0.02 0.01 0.01 0.01 0.02 0.03 0.02 0.03 0.02 0.02 0.02 0.01 0.02 0.02 0.01 0.01 0.01
0.00 0.00 0.01 0.01 0.01 0.00 0.01 0.01 0.00 0.00 0.01 0.00 0.03 0.03 0.00 0.00 0.00 0.01 0.01 0.02 0.03 0.02 0.02 0.01 0.01 0.01 0.01 0.02 0.03 0.04 0.03 0.02 0.02 0.01 0.01 0.01 0.02 0.02 0.01 0.02 0.02 0.01 0.01 0.01 0.02 0.01 0.01 0.02 0.03
0.00 0.00 0.00 0.00 0.00 0.01 0.01 0.01 0.00 0.00 0.00 0.00 0.02 0.03 0.00 0.00 0.00 0.00 0.01 0.02 0.04 0.05 0.02 0.02 0.01 0.01 0.01 0.01 0.01 0.01 0.01 0.01 0.01 0.01 0.01 0.01 0.02 0.02 0.02 0.03 0.01 0.01 0.01 0.01 0.02 0.02 0.02 0.03 0.04
0.00 0.00 0.00 0.00 0.00 0.01 0.01 0.01 0.00 0.00 0.00 0.00 0.00 0.01 0.01 0.00 0.00 0.00 0.01 0.01 0.03 0.04 0.03 0.02 0.02 0.02 0.01 0.01 0.01 0.01 0.01 0.01 0.01 0.01 0.01 0.01 0.01 0.02 0.02 0.03 0.02 0.01 0.01 0.01 0.02 0.02 0.03 0.03 0.02
0.00 0.00 0.00 0.00 0.00 0.01 0.01 0.01 0.01 0.00 0.00 0.00 0.00 0.00 0.00 0.00 0.00 0.00 0.00 0.01 0.00 0.01 0.01 0.01 0.02 0.02 0.02 0.01 0.01 0.02 0.01 0.01 0.01 0.01 0.01 0.01 0.01 0.02 0.02 0.01 0.01 0.01 0.01 0.01 0.01 0.01 0.02 0.03 0.02
0.00 0.00 0.00 0.00 0.00 0.00 0.00 0.01 0.02 0.01 0.01 0.00 0.00 0.00 0.00 0.00 0.00 0.00 0.00 0.00 0.00 0.00 0.01 0.01 0.02 0.02 0.02 0.02 0.01 0.01 0.01 0.02 0.02 0.02 0.02 0.02 0.01 0.02 0.02 0.02 0.01 0.01 0.01 0.02 0.02 0.01 0.02 0.03 0.03
0.00 0.00 0.00 0.00 0.00 0.00 0.01 0.02 0.03 0.02 0.01 0.01 0.01 0.00 0.00 0.00 0.00 0.01 0.01 0.00 0.00 0.01 0.01 0.02 0.02 0.01 0.02 0.02 0.01 0.01 0.01 0.02 0.02 0.04 0.03 0.02 0.02 0.01 0.02 0.02 0.01 0.01 0.01 0.02 0.02 0.03 0.03 0.03 0.03
0.00 0.00 0.00 0.00 0.00 0.00 0.00 0.01 0.03 0.02 0.03 0.01 0.01 0.01 0.00 0.01 0.01 0.01 0.01 0.01 0.01 0.01 0.02 0.02 0.02 0.02 0.02 0.03 0.02 0.01 0.01 0.02 0.02 0.03 0.03 0.02 0.01 0.01 0.02 0.02 0.02 0.01 0.01 0.02 0.01 0.01 0.02 0.03 0.02
0.00 0.00 0.00 0.00 0.00 0.00 0.00 0.01 0.05 0.03 0.03 0.02 0.01 0.01 0.01 0.01 0.01 0.02 0.02 0.01 0.02 0.02 0.02 0.01 0.02 0.01 0.02 0.02 0.01 0.01 0.02 0.03 0.02 0.02 0.02 0.01 0.01 0.01 0.02 0.01 0.01 0.02 0.03 0.03 0.03 0.03 0.02 0.02 0.01
0.00 0.00 0.00 0.00 0.00 0.00 0.00 0.00 0.02 0.01 0.02 0.01 0.01 0.01 0.01 0.01 0.02 0.05 0.05 0.03 0.03 0.03 0.02 0.02 0.01 0.01 0.02 0.01 0.01 0.01 0.02 0.03 0.03 0.02 0.02 0.01 0.02 0.02 0.02 0.02 0.02 0.02 0.03 0.04 0.05 0.04 0.02 0.01 0.02
0.00 0.00 0.00 0.00 0.00 0.00 0.00 0.00 0.01 0.01 0.03 0.02 0.01 0.01 0.01 0.01 0.02 0.05 0.09 0.07 0.05 0.03 0.03 0.02 0.02 0.02 0.02 0.02 0.02 0.02 0.02 0.03 0.02 0.02 0.03 0.02 0.01 0.02 0.03 0.03 0.04 0.04 0.03 0.03 0.04 0.05 0.05 0.04 0.03
0.00 0.00 0.00 0.00 0.00 0.00 0.00 0.01 0.01 0.04 0.03 0.03 0.01 0.00 0.01 0.01 0.01 0.05 0.09 0.11 0.12 0.05 0.02 0.02 0.02 0.02 0.03 0.03 0.04 0.04 0.04 0.04 0.06 0.05 0.04 0.04 0.04 0.04 0.05 0.04 0.04 0.04 0.04 0.03 0.03 0.04 0.05 0.06 0.04
0.00 0.00 0.00 0.00 0.00 0.00 0.00 0.00 0.01 0.02 0.02 0.03 0.02 0.01 0.01 0.01 0.02 0.07 0.09 0.10 0.04 0.02 0.02 0.02 0.02 0.02 0.03 0.04 0.04 0.04 0.04 0.04 0.06 0.07 0.06 0.06 0.07 0.07 0.06 0.05 0.04 0.04 0.06 0.04 0.02 0.03 0.05 0.06 0.04
0.00 0.00 0.00 0.00 0.00 0.00 0.00 0.00 0.00 0.01 0.02 0.03 0.03 0.02 0.03 0.07 0.03 0.04 0.04 0.04 0.02 0.01 0.01 0.01 0.01 0.02 0.03 0.04 0.03 0.04 0.06 0.06 0.06 0.07 0.06 0.06 0.08 0.08 0.07 0.06 0.05 0.06 0.06 0.06 0.05 0.06 0.07 0.06 0.04
0.00 0.00 0.00 0.00 0.00 0.00 0.00 0.00 0.00 0.00 0.00 0.02 0.04 0.04 0.06 0.06 0.04 0.04 0.02 0.02 0.01 0.01 0.01 0.02 0.02 0.04 0.06 0.06 0.07 0.07 0.07 0.05 0.05 0.06 0.07 0.06 0.07 0.08 0.06 0.04 0.06 0.06 0.06 0.07 0.07 0.06 0.07 0.05 0.04
0.00 0.00 0.00 0.00 0.00 0.00 0.00 0.00 0.00 0.00 0.00 0.01 0.03 0.04 0.16 0.11 0.03 0.02 0.02 0.02 0.02 0.02 0.01 0.03 0.04 0.05 0.07 0.07 0.08 0.09 0.10 0.07 0.07 0.08 0.08 0.07 0.06 0.06 0.05 0.06 0.08 0.06 0.05 0.06 0.07 0.07 0.07 0.06 0.05
0.00 0.00 0.00 0.00 0.00 0.00 0.00 0.00 0.00 0.00 0.00 0.00 0.01 0.01 0.04 0.03 0.02 0.02 0.03 0.03 0.02 0.02 0.04 0.07 0.05 0.07 0.07 0.08 0.07 0.08 0.08 0.07 0.07 0.07 0.07 0.08 0.08 0.06 0.06 0.06 0.06 0.06 0.06 0.07 0.10 0.09 0.09 0.10 0.09
0.00 0.00 0.00 0.00 0.00 0.00 0.00 0.00 0.01 0.01 0.01 0.00 0.01 0.02 0.02 0.02 0.02 0.02 0.03 0.03 0.02 0.03 0.05 0.04 0.05 0.06 0.06 0.08 0.08 0.09 0.09 0.07 0.07 0.07 0.08 0.12 0.12 0.12 0.10 0.09 0.07 0.07 0.08 0.10 0.14 0.13 0.13 0.12 0.10
0.00 0.00 0.00 0.00 0.00 0.00 0.00 0.01 0.01 0.01 0.01 0.01 0.02 0.02 0.02 0.01 0.01 0.02 0.03 0.05 0.05 0.06 0.07 0.04 0.04 0.04 0.05 0.06 0.06 0.07 0.08 0.07 0.06 0.08 0.09 0.10 0.10 0.13 0.13 0.15 0.14 0.13 0.11 0.13 0.15 0.13 0.12 0.12 0.11
0.00 0.00 0.00 0.00 0.00 0.00 0.00 0.00 0.01 0.01 0.01 0.01 0.03 0.04 0.02 0.01 0.01 0.01 0.03 0.09 0.09 0.06 0.05 0.05 0.04 0.04 0.04 0.05 0.06 0.07 0.07 0.08 0.10 0.11 0.10 0.08 0.09 0.12 0.15 0.18 0.18 0.16 0.14 0.15 0.14 0.13 0.13 0.13 0.15
0.00 0.00 0.00 0.00 0.00 0.00 0.01 0.01 0.01 0.02 0.02 0.02 0.04 0.04 0.02 0.01 0.01 0.01 0.04 0.11 0.06 0.06 0.09 0.07 0.06 0.07 0.06 0.06 0.07 0.08 0.10 0.10 0.09 0.10 0.11 0.13 0.14 0.15 0.15 0.16 0.15 0.16 0.16 0.16 0.15 0.16 0.16 0.17 0.14
MSLP
1007.23 1008.23 1009.50 1010.85 1012.08 1013.04 1013.63 1013.84 1013.76 1013.52 1013.31 1013.26 1013.45 1013.88 1014.49 1015.15 1015.74 1016.14 1016.29 1016.19 1015.92 1015.57 1015.24 1015.02 1014.95 1015.00 1015.13 1015.26 1015.33 1015.31 1015.21 1015.06 1014.92 1014.84 1014.86 1014.98 1015.18 1015.41 1015.62 1015.76 1015.80 1015.77 1015.69 1015.60 1015.53 1015.52 1015.56 1015.64 1015.73
1007.89 1009.12 1010.52 1011.89 1013.04 1013.82 1014.17 1014.13 1013.81 1013.37 1013.01 1012.85 1012.98 1013.38 1013.97 1014.63 1015.23 1015.64 1015.81 1015.77 1015.55 1015.28 1015.03 1014.89 1014.88 1014.98 1015.15 1015.31 1015.42 1015.43 1015.37 1015.27 1015.17 1015.14 1015.19 1015.32 1015.52 1015.73 1015.91 1016.03 1016.06 1016.04 1015.98 1015.93 1015.91 1015.93 1016.00 1016.10 1016.20
1008.81 1010.21 1011.66 1012.98 1013.97 1014.53 1014.63 1014.34 1013.81 1013.21 1012.75 1012.53 1012.63 1013.02 1013.61 1014.26 1014.83 1015.22 1015.39 1015.35 1015.17 1014.95 1014.76 1014.68 1014.74 1014.90 1015.12 1015.34 1015.49 1015.56 1015.56 1015.51 1015.47 1015.47 1015.54 1015.66 1015.83 1016.00 1016.14 1016.21 1016.23 1016.21 1016.18 1016.17 1016.19 1016.27 1016.38 1016.50 1016.60
1009.92 1011.39 1012.82 1014.00 1014.79 1015.11 1014.96 1014.47 1013.78 1013.09 1012.58 1012.37 1012.48 1012.87 1013.45 1014.07 1014.60 1014.95 1015.08 1015.03 1014.86 1014.66 1014.53 1014.51 1014.62 1014.84 1015.11 1015.37 1015.58 1015.71 1015.76 1015.78 1015.78 1015.81 1015.88 1015.99 1016.12 1016.24 1016.32 1016.36 1016.36 1016.34 1016.34 1016.36 1016.44 1016.56 1016.70 1016.84 1016.96
1011.07 1012.53 1013.84 1014.83 1015.39 1015.47 1015.13 1014.49 1013.72 1013.02 1012.54 1012.38 1012.53 1012.95 1013.51 1014.09 1014.56 1014.85 1014.93 1014.85 1014.68 1014.51 1014.41 1014.44 1014.59 1014.85 1015.15 1015.44 1015.69 1015.86 1015.96 1016.02 1016.07 1016.13 1016.21 1016.30 1016.40 1016.47 1016.51 1016.51 1016.50 1016.49 1016.50 1016.57 1016.68 1016.83 1017.00 1017.15 1017.28
1012.09 1013.43 1014.55 1015.32 1015.65 1015.53 1015.06 1014.36 1013.61 1012.98 1012.61 1012.54 1012.76 1013.20 1013.74 1014.27 1014.67 1014.89 1014.92 1014.82 1014.66 1014.52 1014.46 1014.52 1014.70 1014.97 1015.28 1015.57 1015.82 1016.00 1016.13 1016.22 1016.30 1016.39 1016.48 1016.58 1016.65 1016.70 1016.72 1016.71 1016.69 1016.68 1016.72 1016.80 1016.94 1017.10 1017.27 1017.42 1017.54
1012.80 1013.94 1014.83 1015.35 1015.48 1015.23 1014.70 1014.05 1013.41 1012.94 1012.72 1012.78 1013.08 1013.55 1014.06 1014.52 1014.85 1015.00 1015.00 1014.89 1014.75 1014.65 1014.64 1014.74 1014.94 1015.20 1015.48 1015.74 1015.95 1016.12 1016.24 1016.35 1016.45 1016.56 1016.68 1016.79 1016.89 1016.94 1016.96 1016.95 1016.93 1016.94 1016.98 1017.07 1017.20 1017.36 1017.51 1017.64 1017.73
1013.11 1014.00 1014.62 1014.91 1014.88 1014.56 1014.08 1013.55 1013.10 1012.84 1012.81 1013.02 1013.40 1013.88 1014.35 1014.74 1014.99 1015.08 1015.06 1014.97 1014.88 1014.85 1014.89 1015.03 1015.24 1015.47 1015.71 1015.91 1016.06 1016.18 1016.27 1016.37 1016.49 1016.64 1016.79 1016.95 1017.07 1017.16 1017.20 1017.21 1017.21 1017.22 1017.26 1017.34 1017.46 1017.58 1017.70 1017.79 1017.85
1013.02 1013.62 1013.98 1014.07 1013.93 1013.62 1013.24 1012.90 1012.69 1012.68 1012.86 1013.21 1013.65 1014.12 1014.54 1014.84 1015.01 1015.05 1015.02 1014.98 1014.95 1015.00 1015.12 1015.30 1015.52 1015.73 1015.90 1016.03 1016.10 1016.16 1016.21 1016.30 1016.43 1016.61 1016.81 1017.01 1017.19 1017.32 1017.40 1017.45 1017.47 1017.49 1017.53 1017.59 1017.67 1017.75 1017.82 1017.87 1017.89
1012.63 1012.96 1013.07 1013.00 1012.80 1012.54 1012.32 1012.21 1012.26 1012.48 1012.85 1013.31 1013.79 1014.22 1014.56 1014.76 1014.85 1014.85 1014.83 1014.84 1014.90 1015.04 1015.24 1015.48 1015.71 1015.89 1016.01 1016.06 1016.06 1016.05 1016.06 1016.13 1016.27 1016.48 1016.72 1016.98 1017.21 1017.40 1017.53 1017.62 1017.67 1017.70 1017.73 1017.77 1017.81 1017.85 1017.87 1017.87 1017.87
1012.15 1012.22 1012.14 1011.95 1011.73 1011.56 1011.50 1011.61 1011.89 1012.32 1012.83 1013.35 1013.82 1014.18 1014.41 1014.51 1014.52 1014.49 1014.48 1014.54 1014.68 1014.92 1015.20 1015.50 1015.75 1015.92 1016.00 1015.99 1015.94 1015.87 1015.85 1015.90 1016.05 1016.27 1016.55 1016.85 1017.14 1017.37 1017.56 1017.68 1017.76 1017.81 1017.84 1017.86 1017.88 1017.88 1017.87 1017.84 1017.81
1011.77 1011.65 1011.42 1011.15 1010.93 1010.85 1010.94 1011.23 1011.68 1012.24 1012.83 1013.36 1013.77 1014.03 1014.14 1014.14 1014.07 1014.00 1014.00 1014.11 1014.33 1014.65 1015.00 1015.34 1015.62 1015.79 1015.85 1015.82 1015.74 1015.65 1015.61 1015.65 1015.80 1016.03 1016.33 1016.65 1016.96 1017.24 1017.45 1017.61 1017.72 1017.80 1017.84 1017.87 1017.87 1017.86 1017.83 1017.79 1017.75
1011.71 1011.45 1011.10 1010.78 1010.58 1010.56 1010.75 1011.15 1011.69 1012.30 1012.88 1013.36 1013.68 1013.83 1013.82 1013.71 1013.58 1013.49 1013.50 1013.64 1013.91 1014.28 1014.68 1015.06 1015.36 1015.55 1015.62 1015.59 1015.51 1015.43 1015.39 1015.43 1015.57 1015.80 1016.09 1016.40 1016.72 1017.00 1017.23 1017.42 1017.56 1017.66 1017.74 1017.79 1017.81 1017.82 1017.80 1017.76 1017.72
1012.05 1011.70 1011.30 1010.94 1010.74 1010.74 1010.96 1011.38 1011.91 1012.48 1012.99 1013.36 1013.56 1013.60 1013.49 1013.31 1013.14 1013.04 1013.06 1013.23 1013.52 1013.91 1014.33 1014.72 1015.03 1015.24 1015.33 1015.34 1015.30 1015.25 1015.24 1015.29 1015.42 1015.62 1015.87 1016.15 1016.43 1016.69 1016.92 1017.11 1017.28 1017.43 1017.55 1017.64 1017.71 1017.76 1017.77 1017.76 1017.75
1012.74 1012.36 1011.92 1011.54 1011.32 1011.30 1011.49 1011.83 1012.27 1012.72 1013.10 1013.33 1013.42 1013.35 1013.19 1012.98 1012.81 1012.72 1012.77 1012.95 1013.25 1013.62 1014.03 1014.40 1014.71 1014.94 1015.07 1015.13 1015.15 1015.16 1015.19 1015.26 1015.37 1015.53 1015.71 1015.92 1016.13 1016.34 1016.54 1016.73 1016.93 1017.11 1017.29 1017.45 1017.58 1017.69 1017.76 1017.80 1017.81
1013.64 1013.24 1012.80 1012.41 1012.16 1012.08 1012.17 1012.39 1012.67 1012.94 1013.14 1013.23 1013.20 1013.08 1012.91 1012.73 1012.61 1012.58 1012.67 1012.86 1013.15 1013.49 1013.84 1014.18 1014.47 1014.69 1014.87 1015.00 1015.09 1015.18 1015.26 1015.34 1015.43 1015.53 1015.63 1015.74 1015.86 1015.99 1016.14 1016.32 1016.53 1016.75 1016.99 1017.21 1017.42 1017.60 1017.73 1017.83 1017.89
1014.53 1014.14 1013.71 1013.33 1013.05 1012.89 1012.86 1012.91 1012.99 1013.05 1013.06 1013.01 1012.90 1012.77 1012.64 1012.55 1012.54 1012.61 1012.76 1012.98 1013.25 1013.53 1013.81 1014.08 1014.33 1014.55 1014.76 1014.95 1015.12 1015.28 1015.42 1015.52 1015.59 1015.62 1015.63 1015.62 1015.63 1015.68 1015.77 1015.92 1016.13 1016.38 1016.66 1016.95 1017.22 1017.46 1017.66 1017.81 1017.92
1015.18 1014.84 1014.46 1014.12 1013.83 1013.62 1013.46 1013.32 1013.19 1013.03 1012.86 1012.67 1012.51 1012.40 1012.37 1012.42 1012.56 1012.77 1013.02 1013.28 1013.53 1013.75 1013.95 1014.13 1014.31 1014.51 1014.73 1014.97 1015.22 1015.45 1015.64 1015.76 1015.80 1015.77 1015.68 1015.57 1015.47 1015.42 1015.44 1015.55 1015.75 1016.01 1016.32 1016.65 1016.97 1017.25 1017.50 1017.70 1017.85
1015.48 1015.22 1014.95 1014.69 1014.45 1014.21 1013.95 1013.65 1013.31 1012.94 1012.58 1012.28 1012.08 1012.02 1012.11 1012.33 1012.66 1013.03 1013.40 1013.71 1013.95 1014.11 1014.21 1014.29 1014.39 1014.55 1014.77 1015.04 1015.34 1015.64 1015.87 1016.01 1016.03 1015.94 1015.77 1015.57 1015.38 1015.24 1015.19 1015.26 1015.43 1015.68 1015.99 1016.32 1016.65 1016.95 1017.21 1017.44 1017.62
1015.39 1015.27 1015.16 1015.06 1014.93 1014.72 1014.41 1013.99 1013.47 1012.90 1012.37 1011.95 1011.72 1011.70 1011.91 1012.30 1012.82 1013.36 1013.84 1014.22 1014.45 1014.55 1014.56 1014.54 1014.55 1014.64 1014.84 1015.12 1015.46 1015.79 1016.06 1016.22 1016.23 1016.11 1015.88 1015.61 1015.34 1015.14 1015.03 1015.05 1015.18 1015.40 1015.67 1015.97 1016.26 1016.53 1016.78 1017.00 1017.19
1015.03 1015.10 1015.24 1015.36 1015.41 1015.30 1015.00 1014.48 1013.81 1013.07 1012.36 1011.82 1011.53 1011.53 1011.83 1012.36 1013.04 1013.73 1014.33 1014.76 1014.99 1015.04 1014.96 1014.84 1014.75 1014.77 1014.92 1015.19 1015.54 1015.89 1016.19 1016.36 1016.38 1016.24 1015.99 1015.68 1015.37 1015.12 1014.98 1014.95 1015.03 1015.19 1015.40 1015.62 1015.83 1016.03 1016.21 1016.38 1016.56
1014.57 1014.90 1015.34 1015.75 1016.04 1016.08 1015.83 1015.27 1014.48 1013.56 1012.69 1012.00 1011.61 1011.59 1011.93 1012.55 1013.33 1014.13 1014.82 1015.29 1015.52 1015.53 1015.37 1015.16 1014.98 1014.91 1015.00 1015.24 1015.58 1015.94 1016.25 1016.44 1016.47 1016.34 1016.09 1015.78 1015.46 1015.20 1015.02 1014.96 1014.98 1015.07 1015.19 1015.30 1015.39 1015.47 1015.54 1015.64 1015.77
1014.20 1014.84 1015.61 1016.35 1016.91 1017.13 1016.96 1016.39 1015.49 1014.42 1013.37 1012.52 1012.01 1011.92 1012.23 1012.87 1013.70 1014.56 1015.30 1015.80 1016.02 1015.99 1015.78 1015.48 1015.22 1015.08 1015.11 1015.30 1015.61 1015.96 1016.28 1016.48 1016.53 1016.43 1016.21 1015.92 1015.61 1015.36 1015.18 1015.08 1015.05 1015.06 1015.07 1015.05 1015.00 1014.92 1014.86 1014.83 1014.88
1014.07 1015.02 1016.13 1017.19 1018.00 1018.41 1018.32 1017.74 1016.76 1015.55 1014.34 1013.32 1012.66 1012.45 1012.69 1013.30 1014.13 1015.00 1015.75 1016.26 1016.48 1016.43 1016.17 1015.82 1015.50 1015.30 1015.27 1015.41 1015.69 1016.02 1016.33 1016.54 1016.62 1016.55 1016.36 1016.11 1015.84 1015.61 1015.43 1015.32 1015.24 1015.16 1015.06 1014.90 1014.70 1014.46 1014.24 1014.08 1014.02
1014.20 1015.44 1016.83 1018.15 1019.18 1019.73 1019.71 1019.13 1018.09 1016.76 1015.40 1014.23 1013.44 1013.10 1013.25 1013.79 1014.57 1015.42 1016.17 1016.67 1016.89 1016.83 1016.56 1016.19 1015.83 1015.59 1015.52 1015.62 1015.86 1016.16 1016.46 1016.67 1016.77 1016.73 1016.58 1016.37 1016.15 1015.95 1015.79 1015.66 1015.54 1015.39 1015.19 1014.91 1014.56 1014.17 1013.80 1013.49 1013.31
1014.54 1015.99 1017.58 1019.06 1020.22 1020.85 1020.87 1020.28 1019.19 1017.79 1016.34 1015.07 1014.17 1013.73 1013.79 1014.25 1014.98 1015.79 1016.52 1017.02 1017.25 1017.21 1016.96 1016.60 1016.24 1015.99 1015.90 1015.97 1016.18 1016.45 1016.73 1016.93 1017.03 1017.01 1016.90 1016.73 1016.55 1016.37 1016.23 1016.09 1015.95 1015.75 1015.47 1015.09 1014.63 1014.12 1013.61 1013.17 1012.87
1014.94 1016.49 1018.16 1019.69 1020.87 1021.52 1021.53 1020.93 1019.83 1018.41 1016.93 1015.63 1014.69 1014.21 1014.21 1014.62 1015.30 1016.08 1016.78 1017.30 1017.55 1017.55 1017.35 1017.05 1016.73 1016.51 1016.43 1016.49 1016.67 1016.92 1017.16 1017.35 1017.44 1017.43 1017.34 1017.19 1017.03 1016.88 1016.75 1016.62 1016.45 1016.23 1015.90 1015.47 1014.94 1014.34 1013.75 1013.22 1012.81
1015.26 1016.79 1018.39 1019.85 1020.95 1021.53 1021.50 1020.89 1019.81 1018.45 1017.03 1015.79 1014.90 1014.44 1014.45 1014.84 1015.50 1016.26 1016.96 1017.50 1017.80 1017.87 1017.75 1017.53 1017.29 1017.13 1017.08 1017.15 1017.32 1017.55 1017.76 1017.92 1017.99 1017.97 1017.88 1017.74 1017.60 1017.46 1017.33 1017.21 1017.05 1016.81 1016.48 1016.03 1015.49 1014.87 1014.24 1013.65 1013.18
1015.37 1016.76 1018.19 1019.45 1020.37 1020.82 1020.73 1020.12 1019.11 1017.88 1016.61 1015.53 1014.76 1014.41 1014.48 1014.91 1015.57 1016.33 1017.05 1017.62 1017.98 1018.13 1018.12 1018.01 1017.88 1017.80 1017.82 1017.92 1018.10 1018.31 1018.49 1018.62 1018.66 1018.62 1018.51 1018.37 1018.22 1018.09 1017.97 1017.86 1017.71 1017.49 1017.19 1016.77 1016.26 1015.67 1015.06 1014.47 1013.97
1015.24 1016.41 1017.57 1018.56 1019.24 1019.52 1019.35 1018.77 1017.88 1016.82 1015.79 1014.93 1014.37 1014.19 1014.37 1014.86 1015.55 1016.33 1017.06 1017.66 1018.09 1018.33 1018.44 1018.46 1018.45 1018.48 1018.58 1018.73 1018.92 1019.12 1019.28 1019.38 1019.39 1019.32 1019.19 1019.04 1018.89 1018.76 1018.65 1018.55 1018.43 1018.25 1017.99 1017.64 1017.20 1016.68 1016.13 1015.59 1015.12
Thickness
5858 5858 5854 5840 5813 5787 5780 5792 5803 5802 5801 5808 5812 5806 5795 5784 5771 5758 5776 5783 5780 5779 5778 5777 5776 5775 5775 5774 5773 5772 5771 5770 5770 5769 5768 5766 5765 5764 5762 5761 5760 5759 5757 5756 5755 5754 5753 5752 5750
5861 5859 5847 5826 5793 5769 5776 5798 5801 5804 5808 5814 5811 5805 5794 5783 5785 5779 5779 5781 5781 5779 5778 5777 5776 5775 5774 5773 5772 5771 5770 5769 5768 5767 5766 5765 5763 5762 5761 5759 5758 5757 5756 5755 5754 5753 5751 5750 5748
5863 5859 5834 5811 5790 5780 5783 5802 5807 5813 5819 5818 5808 5806 5795 5784 5786 5783 5785 5784 5782 5780 5779 5777 5776 5774 5773 5772 5771 5770 5769 5768 5767 5765 5764 5763 5762 5761 5759 5758 5757 5755 5754 5754 5752 5751 5749 5748 5747
5860 5844 5827 5802 5792 5805 5809 5812 5817 5813 5815 5817 5809 5797 5797 5800 5796 5791 5788 5785 5782 5780 5779 5777 5775 5774 5772 5771 5770 5768 5767 5766 5765 5764 5763 5762 5760 5759 5758 5756 5755 5754 5753 5752 5751 5750 5748 5747 5746
5856 5830 5804 5790 5800 5815 5825 5827 5825 5815 5811 5808 5807 5791 5787 5799 5800 5794 5789 5786 5783 5780 5778 5777 5775 5773 5772 5770 5769 5767 5766 5765 5764 5762 5761 5760 5759 5758 5756 5755 5754 5753 5752 5751 5750 5749 5747 5746 5745
5838 5820 5791 5782 5800 5818 5827 5832 5826 5814 5808 5807 5803 5791 5785 5798 5796 5792 5790 5786 5784 5781 5778 5776 5774 5772 5771 5769 5768 5766 5765 5763 5762 5761 5760 5759 5758 5756 5755 5754 5753 5752 5751 5750 5749 5748 5747 5746 5745
5831 5810 5795 5794 5800 5810 5824 5835 5827 5815 5807 5808 5809 5791 5787 5793 5797 5795 5790 5786 5783 5780 5778 5775 5773 5772 5770 5768 5767 5765 5764 5762 5761 5760 5759 5758 5756 5755 5754 5753 5752 5751 5749 5749 5748 5747 5746 5745 5744
5846 5817 5803 5801 5803 5809 5832 5838 5833 5826 5816 5820 5816 5795 5787 5795 5799 5795 5789 5785 5782 5779 5777 5775 5773 5771 5769 5767 5765 5764 5763 5761 5760 5759 5757 5756 5755 5754 5753 5752 5751 5750 5749 5748 5747 5747 5746 5745 5744
5854 5812 5797 5807 5811 5816 5835 5833 5832 5838 5826 5822 5822 5813 5808 5807 5801 5792 5784 5780 5778 5777 5776 5775 5772 5770 5768 5766 5765 5763 5762 5760 5759 5758 5756 5755 5754 5753 5752 5750 5750 5749 5748 5747 5747 5746 5746 5745 5744
5839 5806 5814 5832 5835 5831 5834 5834 5832 5825 5816 5812 5812 5813 5813 5807 5799 5790 5783 5778 5776 5775 5775 5775 5773 5771 5769 5767 5765 5763 5761 5760 5758 5757 5756 5754 5753 5752 5751 5750 5749 5748 5747 5747 5746 5746 5746 5745 5745
5841 5827 5838 5845 5849 5845 5836 5835 5840 5824 5808 5813 5811 5810 5810 5805 5798 5792 5788 5784 5782 5780 5778 5776 5774 5772 5770 5768 5765 5763 5761 5759 5758 5757 5755 5754 5753 5752 5751 5749 5749 5748 5747 5746 5746 5746 5745 5745 5745
5842 5845 5852 5853 5856 5848 5840 5837 5833 5830 5825 5830 5827 5822 5813 5805 5799 5795 5791 5788 5786 5782 5781 5779 5777 5774 5771 5769 5766 5763 5761 5760 5758 5757 5756 5754 5753 5752 5751 5750 5749 5748 5747 5746 5746 5745 5745 5745 5745
5841 5845 5855 5859 5858 5854 5847 5838 5834 5830 5835 5833 5828 5821 5814 5808 5803 5801 5798 5794 5790 5785 5784 5782 5780 5777 5774 5770 5767 5765 5763 5761 5760 5758 5757 5756 5754 5753 5752 5751 5750 5749 5748 5747 5746 5745 5745 5745 5745
5843 5846 5850 5854 5854 5853 5843 5836 5833 5828 5834 5828 5823 5817 5815 5811 5807 5802 5798 5794 5791 5789 5787 5785 5782 5779 5776 5772 5770 5767 5765 5763 5761 5760 5759 5758 5756 5754 5753 5751 5750 5750 5749 5748 5747 5746 5746 5746 5746
5850 5839 5839 5845 5848 5847 5841 5820 5825 5834 5833 5824 5820 5819 5816 5814 5811 5806 5803 5799 5797 5793 5790 5786 5783 5781 5777 5775 5772 5770 5767 5764 5762 5761 5760 5758 5757 5756 5754 5753 5752 5751 5750 5749 5748 5747 5746 5746 5746
5836 5823 5811 5831 5844 5844 5829 5799 5823 5836 5831 5821 5820 5820 5817 5815 5814 5813 5809 5805 5801 5797 5792 5789 5787 5782 5779 5776 5774 5771 5768 5766 5764 5762 5761 5759 5758 5757 5755 5754 5753 5752 5751 5750 5749 5748 5746 5746 5745
5807 5799 5804 5818 5841 5840 5825 5807 5824 5834 5831 5823 5822 5820 5818 5815 5814 5815 5813 5809 5805 5800 5795 5791 5788 5784 5781 5778 5775 5772 5769 5766 5765 5763 5762 5761 5759 5758 5757 5755 5754 5753 5752 5750 5750 5748 5747 5745 5744
5790 5799 5804 5810 5831 5833 5820 5815 5826 5833 5831 5825 5824 5822 5818 5816 5816 5818 5815 5811 5807 5803 5798 5793 5789 5785 5782 5779 5775 5771 5768 5766 5765 5764 5763 5762 5760 5759 5757 5756 5755 5754 5752 5750 5749 5747 5747 5745 5745
5806 5802 5800 5815 5836 5827 5817 5815 5821 5830 5828 5825 5822 5821 5820 5819 5822 5821 5817 5813 5808 5803 5798 5795 5790 5786 5782 5778 5773 5769 5766 5765 5765 5764 5763 5762 5761 5760 5758 5756 5755 5754 5752 5751 5749 5747 5745 5744 5745
5805 5797 5799 5813 5832 5825 5814 5814 5822 5828 5829 5831 5828 5825 5823 5819 5818 5819 5816 5813 5809 5805 5801 5797 5792 5788 5784 5780 5777 5773 5769 5767 5766 5765 5764 5763 5761 5760 5758 5757 5755 5754 5752 5750 5749 5748 5744 5744 5744
5801 5798 5801 5804 5817 5820 5810 5799 5809 5821 5830 5832 5833 5832 5830 5825 5822 5820 5817 5814 5810 5806 5803 5800 5794 5790 5786 5783 5778 5773 5769 5766 5764 5763 5763 5763 5762 5760 5759 5757 5756 5754 5753 5750 5749 5748 5745 5741 5743
5790 5814 5814 5810 5796 5783 5796 5767 5793 5808 5816 5823 5827 5829 5830 5830 5826 5823 5820 5815 5813 5810 5807 5802 5797 5792 5788 5784 5778 5772 5767 5763 5764 5764 5763 5763 5762 5760 5759 5757 5756 5754 5753 5751 5750 5749 5747 5743 5740
5804 5821 5817 5810 5794 5781 5785 5771 5781 5803 5803 5816 5827 5832 5835 5833 5830 5827 5824 5821 5818 5813 5808 5803 5798 5793 5789 5785 5781 5775 5770 5768 5767 5765 5763 5762 5762 5760 5759 5757 5755 5754 5753 5752 5750 5749 5747 5745 5742
5818 5810 5799 5786 5772 5757 5777 5770 5770 5793 5809 5821 5829 5835 5837 5836 5834 5829 5826 5821 5816 5813 5808 5802 5797 5793 5790 5787 5783 5777 5773 5769 5766 5764 5762 5761 5760 5759 5758 5757 5755 5754 5753 5752 5750 5749 5747 5745 5743
5803 5770 5746 5745 5734 5745 5775 5775 5778 5814 5828 5831 5833 5836 5839 5838 5833 5828 5823 5817 5814 5811 5808 5803 5797 5793 5791 5787 5783 5780 5776 5772 5768 5765 5762 5760 5758 5757 5757 5756 5755 5753 5752 5752 5750 5748 5747 5745 5743
5787 5769 5739 5729 5729 5744 5771 5769 5792 5825 5836 5840 5840 5840 5839 5836 5833 5829 5825 5819 5815 5813 5809 5804 5798 5793 5790 5787 5783 5781 5778 5774 5771 5768 5764 5761 5760 5759 5758 5756 5754 5753 5752 5751 5749 5748 5746 5745 5743
5782 5768 5769 5747 5747 5742 5753 5774 5799 5821 5826 5830 5832 5832 5832 5833 5832 5829 5825 5820 5817 5814 5810 5806 5800 5795 5791 5787 5784 5780 5778 5775 5772 5769 5766 5763 5761 5760 5758 5756 5754 5753 5751 5750 5748 5746 5745 5744 5742
5794 5782 5754 5739 5726 5726 5746 5759 5770 5797 5806 5817 5821 5822 5825 5828 5828 5826 5823 5821 5819 5816 5812 5807 5801 5796 5792 5788 5785 5781 5778 5775 5772 5769 5766 5763 5761 5759 5757 5754 5753 5752 5751 5749 5747 5745 5743 5742 5741
5780 5774 5756 5738 5735 5724 5727 5749 5795 5800 5808 5813 5816 5819 5822 5822 5822 5821 5820 5818 5815 5811 5807 5802 5798 5794 5791 5787 5784 5780 5777 5774 5771 5768 5765 5763 5760 5757 5755 5753 5752 5750 5748 5746 5744 5741 5740 5738 5737
5785 5774 5756 5737 5734 5732 5729 5750 5806 5809 5814 5816 5816 5818 5820 5820 5820 5819 5816 5813 5810 5804 5801 5799 5796 5792 5789 5786 5782 5778 5775 5772 5768 5765 5763 5761 5758 5755 5753 5751 5749 5747 5745 5743 5740 5737 5736 5735 5733